FENGYUN 1A

Satellite information

Favourite Embed

Satellite Type and Status

PAYLOADIN ORBIT

Key statistics

Satellite FENGYUN 1A at a glance.

Uptime

13453

Days in orbit

Revolutions

≈ 14.0

Per day

Orbit

SSO

Sun Synchronous Orbit

Inclination

99.1

Latest

Satellite identification and parameters

Extended collection of information and parameters for FENGYUN 1A.

Object identification

Identified? True

Debris? False

Object name: FENGYUN 1A

International designator: 1988-080A

Object number (NORAD): 19467

Object ID (CCSDS): 19467

Country: PEOPLES REPUBLIC OF CHINA (PRC)

Current information (Y/N): Y

RCS size: LARGE

Orbital parameters

Period: 102.603 minutes

Inclination: 99.0773 deg

SMA: 7259.952 km

Apoapsis: 891.481 km

Periapsis: 872.152 km

RAAN: 237.5975 deg

Eccentricy: 0.0013312

Argument of periapsis: 219.432 deg

Mean anomaly: 140.5878 deg

Mean motion: 14.03466913 rev/day

Mean motion (dot): -0.00000203 rev/day2

B* drag term: -0.00010063 1/REarth

Two-line elements (TLE)

Creation date: July 6, 2025, 6:05 p.m.

Reference frame: TEME

Reference center: EARTH

Epoch: July 6, 2025, 2:32 p.m. UTC

TLE line 0: 0 FENGYUN 1A

TLE line 1: 1 19467U 88080A 25187.60613213 -.00000203 00000-0 -10063-3 0 9996

TLE line 2: 2 19467 99.0773 237.5975 0013312 219.4320 140.5878 14.03466913885420

Live tracking on map

Real-time ground track for satellite FENGYUN 1A.

In-orbit conjunctions

There are no conjunctions computed for FENGYUN 1A, at the moment. Check back to stay up to date, as we update our databases every day.

Go to all conjunctions

Associated space launch

Chinese polar orbiting meteorological satellite

FENGYUN 1A was lifted into orbit during the mission ‘Long March 4A | Feng Yun 1A’, on board a Long March 4A space rocket.

The launch took place on Sept. 6, 1988, 8:30 p.m. from Launch Complex 7.

For more information about the launch, click the button.

Launch to space Long March 4A | Feng Yun 1A
Long March 4A | Feng Yun 1A

Agency: N/A

Status: Launch Successful

Launch date: Sept. 6, 1988, 8:30 p.m. UTC

Rocket: Long March 4A

Launch pad: Launch Complex 7

Location: Taiyuan Satellite Launch Center, People's Republic of China

...

Latest news about this satellite

There are no fresh news available about this satellite. Check back as we update our databases every day.


Newsletter sign-up

Weekly statistics, charts and insights to help you stay on top of the space industry.